Notices

What's New in latest Release from April 7th, 2021:

- Updated Glossary, including Speed of Maximum Gust, and Total Hourly Precipitation

- Updated national and regional climate services offices contacts and prices information

- Addition of station inventory lists for 1981-2010, 1971-2000, and 1961-1990 Normals.

If you haven't already, please take our survey and provide feedback about our website: https://eccc.sondage-survey.ca/f/LanguageSelection.aspx?s=442ca660-fcf1-47c0-95a9-59707d6fd709

Hourly Data Report for April 19, 2017

KUGAARUK CLIMATE
NUNAVUT

68°32'15.060" N
89°47'47.020" W
15.80 m
2303094
71407
NBB

Download Data

Hourly Data (April 2017)
Hourly Data Report for April 19, 2017
TIME
LST
Temp Definition
°C
Dew Point Definition
°C
Rel Hum Definition
%
Precip. Amount Definition
mm

Wind Dir Definition
10's deg

Wind Spd Definition
km/h
Visibility Definition
km
Stn Press Definition
kPa
Hmdx Definition


Wind Chill Definition


Weather Definition


00:00 -24.3 -27.2 76 0.0 25 5   101.07   -29 LegendNANA
01:00 -24.3 -27.3 77 0.0 0 1   101.12   -25 LegendNANA
02:00 -24.7 -27.6 77 0.0 26 3   101.14   -28 LegendNANA
03:00 -24.3 -27.1 78 0.0 24 2   101.16   -26 LegendNANA
04:00 -22.8 -25.1 82 0.0 4 5   101.19   -27 LegendNANA
05:00 -22.8 -25.3 80 0.0 7 4   101.22   -27 LegendNANA
06:00 -22.9 -25.7 78 0.0 11 7   101.23   -29 LegendNANA
07:00 -22.7 -26.4 72 0.0 4 4   101.24   -26 LegendNANA
08:00 -22.3 -26.1 71 0.0 10 6   101.26   -28 LegendNANA
09:00 -21.5 -27.5 58 0.0 12 2   101.29   -23 LegendNANA
10:00 -20.9 -28.0 53 0.0 18 3   101.30   -24 LegendNANA
11:00 -21.0 -29.0 49 0.0 25 4   101.34   -25 LegendNANA
12:00 -20.8 -27.0 58 0.0 9 4   101.41   -24 LegendNANA
13:00 -20.6 -28.0 51 0.0 5 3   101.45   -23 LegendNANA
14:00 -20.7 -26.5 59 0.0 8 5   101.48   -25 LegendNANA
15:00 -20.7 -26.3 61 0.0 9 8   101.54   -27 LegendNANA
16:00 -21.1 -26.4 63 0.0 11 8   101.58   -28 LegendNANA
17:00 -21.2 -26.2 64 0.0 9 5   101.61   -26 LegendNANA
18:00 -22.0 -26.4 67 0.0 8 4   101.66   -26 LegendNANA
19:00 -22.3 -25.4 75 0.0 8 4   101.69   -26 LegendNANA
20:00 -22.9 -25.7 78 0.0 0 1   101.69   -24 LegendNANA
21:00 -23.0 -25.7 79 0.0 25 7   101.72   -29 LegendNANA
22:00 -23.0 -25.6 79 0.0 26 10   101.74   -31 LegendNANA
23:00 -22.8 -25.4 79 0.0 25 13   101.77   -32 LegendNANA

Notes on Data Quality.

Legend

  • E = Estimated
  • M = Missing
  • NA = Not Available*
  • [empty] = Indicates an unobserved value
Date modified: